Location: Gwatt
(46.7204°N, 7.6223°E)
Time: 11:32:28
(UTC+00:00)

Cosmos 1782 Rocket - Pass Details

Date: 18 September 2020
Orbit: 607 x 632 km, 82.5° (Epoch: 24 October)

Event Time Altitude Azimuth Distance (km) Brightness Sun altitude
Rises 18:42:04 0° 196° (SSW) 2,881 7.0 -12.2°
Reaches altitude 10° 18:44:18 10° 199° (SSW) 1,984 6.2 -12.6°
Maximum altitude 18:48:39 64° 281° (W) 696 4.1 -13.3°
Drops below altitude 10° 18:53:06 10° 3° (N) 2,015 6.4 -14.1°
Sets 18:55:22 0° 7° (N) 2,931 7.2 -14.4°
